Orbital Elements at Epoch 2459000.5 (2020-May-31.0) TDB
Reference: JPL 12 (heliocentric ecliptic J2000)
Element | Value | Uncertainty (1-sigma) | Units |
e | .1807346181894777 | 5.3128e-08 | |
a | 2.423999158334443 | 1.5812e-08 | au |
q | 1.985898595961252 | 1.339e-07 | au |
i | 1.399562392439744 | 6.5731e-06 | deg |
node | 24.67955352471681 | 0.0002171 | deg |
peri | 18.31413505300359 | 0.00021787 | deg |
M | 225.7807839603998 | 1.912e-05 | deg |
tp | 2459514.436332432453 (2021-Oct-26.93633243) | 7.5649e-05 | TDB |
period | 1378.469381173375 3.77 | 1.3488e-05 3.693e-08 | d yr |
n | .2611592284288262 | 2.5553e-09 | deg/d |
Q | 2.862099720707633 | 1.8669e-08 | au |
|
| | Orbit Determination Parameters
Additional Information
|